This demonstration page uses our WeatherBlox Daily Observations layout. Learn more.

Left ArrowRight Arrow

44.89941, -97.11507

Hourly Observations for May 9, 2019

Temp ( °F °C ) Dew Point ( °F °C ) Humidity (%) Winds ( mph kmh ) Pressure ( in mb ) Visibility ( mi km ) Precip ( " mm )
12:53 am 00:53 Cloudy 38 3.3 35 1.7 89 89 N 20 31 30.01 1016 10 16 0.00 0.00
1:53 am 01:53 Cloudy 38 3.3 35 1.7 89 89 N 17 28 30.01 1016 10 16 0.00 0.00
2:00 am 02:00 Cloudy 38 3.3 35 1.7 89 89 N 18 30 30.03 1017 10 16 0.00 0.00
2:53 am 02:53 Cloudy 38 3.3 35 1.7 89 89 N 15 24 30.01 1016 10 16 0.00 0.00
3:28 am 03:28 Mostly Cloudy 37 2.8 35 1.7 93 93 N 12 19 30.03 1017 10 16 0.00 0.00
3:53 am 03:53 Mostly Cloudy 38 3.3 35 1.7 89 89 N 15 24 30.01 1016 10 16 0.00 0.00
4:53 am 04:53 Cloudy 40 4.4 37 2.8 89 89 N 20 31 30.01 1016 10 16 0.00 0.00
5:03 am 05:03 Cloudy 40 4.4 37 2.8 89 89 N 18 30 30.02 1017 10 16 0.00 0.00
5:45 am 05:45 Cloudy 40 4.4 37 2.8 89 89 N 20 31 30.02 1017 10 16 0.00 0.00
5:53 am 05:53 Cloudy 40 4.4 37 2.8 89 89 NNW 20 31 30.02 1017 10 16 0.00 0.00
6:03 am 06:03 Cloudy 39 3.9 36 2.2 89 89 N 21 33 30.03 1017 10 16 0.00 0.00
6:53 am 06:53 Mostly Sunny 37 2.8 34 1.1 89 89 N 20 31 30.04 1017 10 16 0.00 0.00
7:53 am 07:53 Mostly Cloudy 40 4.4 35 1.7 83 83 N 17 28 30.06 1018 10 16 0.00 0.00
8:53 am 08:53 Partly Cloudy 42 5.6 36 2.2 79 79 N 22 35 30.06 1018 10 16 0.00 0.00
9:12 am 09:12 Mostly Cloudy 43 6.1 37 2.8 80 80 N 21 33 30.07 1018 10 16 0.00 0.00
9:20 am 09:20 Mostly Cloudy 44 6.7 37 2.8 76 76 N 20 31 30.06 1018 10 16 0.00 0.00
9:27 am 09:27 Partly Cloudy 43 6.1 36 2.2 76 76 N 21 33 30.07 1018 10 16 0.00 0.00
9:53 am 09:53 Mostly Sunny 45 7.2 37 2.8 74 74 N 17 28 30.06 1018 10 16 0.00 0.00
10:42 am 10:42 Mostly Cloudy 46 7.8 36 2.2 68 68 N 22 35 30.04 1017 10 16 0.00 0.00
10:53 am 10:53 Cloudy 46 7.8 36 2.2 68 68 N 20 31 30.06 1018 10 16 0.00 0.00
11:53 am 11:53 Cloudy 49 9.4 36 2.2 61 61 N 20 31 30.06 1018 10 16 0.00 0.00
12:53 pm 12:53 Cloudy 48 8.9 34 1.1 58 58 NNW 20 31 30.09 1019 10 16 0.00 0.00
1:53 pm 13:53 Cloudy 50 10 35 1.7 57 57 N 16 26 30.10 1019 10 16 0.00 0.00
2:53 pm 14:53 Mostly Cloudy 51 10.6 32 0 48 48 NNW 18 30 30.10 1019 10 16 0.00 0.00
3:53 pm 15:53 Partly Cloudy 53 11.7 30 -1.1 41 41 NW 13 20 30.09 1019 10 16 0.00 0.00
4:53 pm 16:53 Mostly Sunny 53 11.7 28 -2.2 38 38 NW 17 28 30.08 1019 10 16 0.00 0.00
5:53 pm 17:53 Sunny 52 11.1 27 -2.8 38 38 NNW 16 26 30.09 1019 10 16 0.00 0.00
6:53 pm 18:53 Sunny 51 10.6 27 -2.8 39 39 N 17 28 30.09 1019 10 16 0.00 0.00
7:53 pm 19:53 Sunny 48 8.9 28 -2.2 46 46 N 12 19 30.09 1019 10 16 0.00 0.00
8:53 pm 20:53 Clear 44 6.7 29 -1.7 55 55 NNW 9 15 30.10 1019 10 16 0.00 0.00
9:53 pm 21:53 Clear 39 3.9 29 -1.7 67 67 NNW 5 7 30.11 1020 10 16 0.00 0.00
10:53 pm 22:53 Clear 41 5 31 -0.6 67 67 WNW 3 6 30.13 1020 10 16 0.00 0.00
11:53 pm 23:53 Clear 38 3.3 31 -0.6 76 76 Calm 30.14 1021 10 16 0.00 0.00

Powered by AerisWeather